Location: *
(46.4833°N, 7.6667°E)
Time: 16:36:04
(UTC+00:00)

NOSS 2-2 (E) - Pass Details

Date: 27 February 2020
Orbit: 481 x 1726 km, 63.3° (Epoch: 04 April)

Event Time Altitude Azimuth Distance (km) Brightness Sun altitude
Rises 18:47:48 0° 193° (SSW) 2,533 6.8 -17.3°
Reaches altitude 10° 18:50:00 10° 183° (S) 1,653 5.7 -17.7°
Enters shadow 18:51:49 23° 159° (SSE) 1,063 4.5 -18.0°
